Year,Month,Day,Hour,Minute,Value (Times are PST for temperature in C)
2008,12,22,10,22,0.10
2008,12,22,10,23,0.10
2008,12,22,10,24,0.10
2008,12,22,10,25,0.10
2008,12,22,10,26,0.20
2008,12,22,10,27,0.20
2008,12,22,10,28,0.20
2008,12,22,10,29,0.20
2008,12,22,10,30,0.20
2008,12,22,10,31,0.20
2008,12,22,10,32,0.20
2008,12,22,10,33,0.30
2008,12,22,10,34,0.40
2008,12,22,10,35,0.40
2008,12,22,10,36,0.40
2008,12,22,10,37,0.40
2008,12,22,10,38,0.50
2008,12,22,10,39,0.50
2008,12,22,10,40,0.60
2008,12,22,10,41,0.70
2008,12,22,10,42,0.70
2008,12,22,10,43,0.70
2008,12,22,10,44,0.80
2008,12,22,10,45,0.70
2008,12,22,10,46,0.70
2008,12,22,10,47,0.70
2008,12,22,10,48,0.60
2008,12,22,10,49,0.60
2008,12,22,10,50,0.50
2008,12,22,10,51,0.50
2008,12,22,10,52,0.50
2008,12,22,10,53,0.50
2008,12,22,10,54,0.50
2008,12,22,10,55,0.40
2008,12,22,10,56,0.40
2008,12,22,10,57,0.50
2008,12,22,10,58,0.40
2008,12,22,10,59,0.40
2008,12,22,11,00,0.40
2008,12,22,11,01,0.40
2008,12,22,11,02,0.40
2008,12,22,11,03,0.40
2008,12,22,11,04,0.40
2008,12,22,11,05,0.40
2008,12,22,11,06,0.40
2008,12,22,11,07,0.40
2008,12,22,11,08,0.40
2008,12,22,11,09,0.50
2008,12,22,11,10,0.50
2008,12,22,11,11,0.60
2008,12,22,11,12,0.60
2008,12,22,11,13,0.50
2008,12,22,11,14,0.50
2008,12,22,11,15,0.50
2008,12,22,11,16,0.60
2008,12,22,11,17,0.60
2008,12,22,11,18,0.70
2008,12,22,11,19,0.70
2008,12,22,11,20,0.70
2008,12,22,11,21,0.60
2008,12,22,11,22,0.60
2008,12,22,11,23,0.60
2008,12,22,11,24,0.60
2008,12,22,11,25,0.70
2008,12,22,11,26,0.60
2008,12,22,11,27,0.60
2008,12,22,11,28,0.60
2008,12,22,11,29,0.60
2008,12,22,11,30,0.60
2008,12,22,11,31,0.70
2008,12,22,11,32,0.70
2008,12,22,11,33,0.70
2008,12,22,11,34,0.70
2008,12,22,11,35,0.70
2008,12,22,11,36,0.70
2008,12,22,11,37,0.70
2008,12,22,11,38,0.70
2008,12,22,11,39,0.70
2008,12,22,11,40,0.70
2008,12,22,11,41,0.70
2008,12,22,11,42,0.80
2008,12,22,11,43,0.80
2008,12,22,11,44,0.80
2008,12,22,11,45,0.80
2008,12,22,11,46,0.80
2008,12,22,11,47,0.80
2008,12,22,11,48,0.80
2008,12,22,11,49,0.80
2008,12,22,11,50,0.80
2008,12,22,11,51,0.80
2008,12,22,11,52,0.80
2008,12,22,11,53,0.80
2008,12,22,11,54,0.80
2008,12,22,11,55,0.80
2008,12,22,11,56,0.80
2008,12,22,11,57,0.80
2008,12,22,11,58,0.80
2008,12,22,11,59,0.70
2008,12,22,12,00,0.70
2008,12,22,12,01,0.70
2008,12,22,12,02,0.70
2008,12,22,12,03,0.70
2008,12,22,12,04,0.70
2008,12,22,12,05,0.70
2008,12,22,12,06,0.70
2008,12,22,12,07,0.70
2008,12,22,12,08,0.70
2008,12,22,12,09,0.70
2008,12,22,12,10,0.60
2008,12,22,12,11,0.70
2008,12,22,12,12,0.70
2008,12,22,12,13,0.70
2008,12,22,12,14,0.70
2008,12,22,12,15,0.80
2008,12,22,12,16,0.80
2008,12,22,12,17,0.80
2008,12,22,12,18,0.80
2008,12,22,12,19,0.80
2008,12,22,12,20,0.80
2008,12,22,12,21,0.80
2008,12,22,12,22,0.80
2008,12,22,12,23,0.80
2008,12,22,12,24,0.80
2008,12,22,12,25,0.80
2008,12,22,12,26,0.80
2008,12,22,12,27,0.80
2008,12,22,12,28,0.80
2008,12,22,12,29,0.80
2008,12,22,12,30,0.80
2008,12,22,12,31,0.80
2008,12,22,12,32,0.80
2008,12,22,12,33,0.80
2008,12,22,12,34,0.80
2008,12,22,12,35,0.80
2008,12,22,12,36,0.70
2008,12,22,12,37,0.70
2008,12,22,12,38,0.70
2008,12,22,12,39,0.60
2008,12,22,12,40,0.60
2008,12,22,12,41,0.60
2008,12,22,12,42,0.60
2008,12,22,12,43,0.60
2008,12,22,12,44,0.60
2008,12,22,12,45,0.60
2008,12,22,12,46,0.60
2008,12,22,12,47,0.60
2008,12,22,12,48,0.60
2008,12,22,12,49,0.60
2008,12,22,12,50,0.60
2008,12,22,12,51,0.60
2008,12,22,12,52,0.60
2008,12,22,12,53,0.60
2008,12,22,12,54,0.60
2008,12,22,12,55,0.60
2008,12,22,12,56,0.60
2008,12,22,12,57,0.60
2008,12,22,12,58,0.50
2008,12,22,12,59,0.50
2008,12,22,13,00,0.50
2008,12,22,13,01,0.50
2008,12,22,13,02,0.50
2008,12,22,13,03,0.50
2008,12,22,13,04,0.40
2008,12,22,13,05,0.40
2008,12,22,13,06,0.40
2008,12,22,13,07,0.40
2008,12,22,13,08,0.40
2008,12,22,13,09,0.40
2008,12,22,13,10,0.40
2008,12,22,13,11,0.40
2008,12,22,13,12,0.40
2008,12,22,13,13,0.40
2008,12,22,13,14,0.40
2008,12,22,13,15,0.40
2008,12,22,13,16,0.40
2008,12,22,13,17,0.40
2008,12,22,13,18,0.40
2008,12,22,13,19,0.40
2008,12,22,13,20,0.40
2008,12,22,13,21,0.40
2008,12,22,13,22,0.40
2008,12,22,13,23,0.40
2008,12,22,13,24,0.40
2008,12,22,13,25,0.50
2008,12,22,13,26,0.50
2008,12,22,13,27,0.50
2008,12,22,13,28,0.50
2008,12,22,13,29,0.50
2008,12,22,13,30,0.50
2008,12,22,13,31,0.50
2008,12,22,13,32,0.50
2008,12,22,13,33,0.50
2008,12,22,13,34,0.50
2008,12,22,13,35,0.50
2008,12,22,13,36,0.50
2008,12,22,13,37,0.50
2008,12,22,13,38,0.60
2008,12,22,13,39,0.60
2008,12,22,13,40,0.60
2008,12,22,13,41,0.60
2008,12,22,13,42,0.70
2008,12,22,13,43,0.70
2008,12,22,13,44,0.70
2008,12,22,13,45,0.70
2008,12,22,13,46,0.70
2008,12,22,13,47,0.70
2008,12,22,13,48,0.70
2008,12,22,13,49,0.80
2008,12,22,13,50,0.80
2008,12,22,13,51,0.70
2008,12,22,13,52,0.70
2008,12,22,13,53,0.80
2008,12,22,13,54,0.80
2008,12,22,13,55,0.80
2008,12,22,13,56,0.80
2008,12,22,13,57,0.80
2008,12,22,13,58,0.80
2008,12,22,13,59,0.80
2008,12,22,14,00,0.80
2008,12,22,14,01,0.80
2008,12,22,14,02,0.80
2008,12,22,14,03,0.80
2008,12,22,14,04,0.80
2008,12,22,14,05,0.80
2008,12,22,14,06,0.80
2008,12,22,14,07,0.80
2008,12,22,14,08,0.80
2008,12,22,14,09,0.80
2008,12,22,14,10,0.80
2008,12,22,14,11,0.80
2008,12,22,14,12,0.80
2008,12,22,14,13,0.80
2008,12,22,14,14,0.80
2008,12,22,14,15,0.80
2008,12,22,14,16,0.80
2008,12,22,14,17,0.80
2008,12,22,14,18,0.80
2008,12,22,14,19,0.80
2008,12,22,14,20,0.80
2008,12,22,14,21,0.80
2008,12,22,14,22,0.80
2008,12,22,14,23,0.80
2008,12,22,14,24,0.80
2008,12,22,14,25,0.80
2008,12,22,14,26,0.80
2008,12,22,14,27,0.80
2008,12,22,14,28,0.80
2008,12,22,14,29,0.80
2008,12,22,14,30,0.80
2008,12,22,14,31,0.80
2008,12,22,14,32,0.80
2008,12,22,14,33,0.80
2008,12,22,14,34,0.80
2008,12,22,14,35,0.80
2008,12,22,14,36,0.80
2008,12,22,14,37,0.80
2008,12,22,14,38,0.80
2008,12,22,14,39,0.80
2008,12,22,14,40,0.80
2008,12,22,14,41,0.80
2008,12,22,14,42,0.80
2008,12,22,14,43,0.80
2008,12,22,14,44,0.80
2008,12,22,14,45,0.80
2008,12,22,14,46,0.80
2008,12,22,14,47,0.80
2008,12,22,14,48,0.80
2008,12,22,14,49,0.80
2008,12,22,14,50,0.80
2008,12,22,14,51,0.80
2008,12,22,14,52,0.80
2008,12,22,14,53,0.80
2008,12,22,14,54,0.80
2008,12,22,14,55,0.80
2008,12,22,14,56,0.80
2008,12,22,14,57,0.80
2008,12,22,14,58,0.80
2008,12,22,14,59,0.80
2008,12,22,15,00,0.80
2008,12,22,15,01,0.80
2008,12,22,15,02,0.80
2008,12,22,15,03,0.80
2008,12,22,15,04,0.80
2008,12,22,15,05,0.80
2008,12,22,15,06,0.80
2008,12,22,15,07,0.80
2008,12,22,15,08,0.80
2008,12,22,15,09,0.80
2008,12,22,15,10,0.80
2008,12,22,15,11,0.80
2008,12,22,15,12,0.80
2008,12,22,15,13,0.80
2008,12,22,15,14,0.80
2008,12,22,15,15,0.80
2008,12,22,15,16,0.80
2008,12,22,15,17,0.80
2008,12,22,15,18,0.80
2008,12,22,15,19,0.80
2008,12,22,15,20,0.80
2008,12,22,15,21,0.80
2008,12,22,15,22,0.80
2008,12,22,15,23,0.80
2008,12,22,15,24,0.80
2008,12,22,15,25,0.80
2008,12,22,15,26,0.80
2008,12,22,15,27,0.80
2008,12,22,15,28,0.80
2008,12,22,15,29,0.80
2008,12,22,15,30,0.80
2008,12,22,15,31,0.80
2008,12,22,15,32,0.80
2008,12,22,15,33,0.80
2008,12,22,15,34,0.70
2008,12,22,15,35,0.70
2008,12,22,15,36,0.70
2008,12,22,15,37,0.70
2008,12,22,15,38,0.70
2008,12,22,15,39,0.70
2008,12,22,15,40,0.70
2008,12,22,15,41,0.70
2008,12,22,15,42,0.70
2008,12,22,15,43,0.70
2008,12,22,15,44,0.70
2008,12,22,15,45,0.70
2008,12,22,15,46,0.70
2008,12,22,15,47,0.70
2008,12,22,15,48,0.70
2008,12,22,15,49,0.70
2008,12,22,15,50,0.70
2008,12,22,15,51,0.70
2008,12,22,15,52,0.60
2008,12,22,15,53,0.60
2008,12,22,15,54,0.60
2008,12,22,15,55,0.60
2008,12,22,15,56,0.60
2008,12,22,15,57,0.60
2008,12,22,15,58,0.60
2008,12,22,15,59,0.60
2008,12,22,16,00,0.60
2008,12,22,16,01,0.60
2008,12,22,16,02,0.60
2008,12,22,16,03,0.60
2008,12,22,16,04,0.60
2008,12,22,16,05,0.60
2008,12,22,16,06,0.50
2008,12,22,16,07,0.50
2008,12,22,16,08,0.50
2008,12,22,16,09,0.50
2008,12,22,16,10,0.50
2008,12,22,16,11,0.50
2008,12,22,16,12,0.50
2008,12,22,16,13,0.50
2008,12,22,16,14,0.50
2008,12,22,16,15,0.50
2008,12,22,16,16,0.40
2008,12,22,16,17,0.40
2008,12,22,16,18,0.40
2008,12,22,16,19,0.40
2008,12,22,16,20,0.40
2008,12,22,16,21,0.40
2008,12,22,16,22,0.40
2008,12,22,16,23,0.40
2008,12,22,16,24,0.40
2008,12,22,16,25,0.40
2008,12,22,16,26,0.40
2008,12,22,16,27,0.40
2008,12,22,16,28,0.40
2008,12,22,16,29,0.40
2008,12,22,16,30,0.40
2008,12,22,16,31,0.40
2008,12,22,16,32,0.40
2008,12,22,16,33,0.40
2008,12,22,16,34,0.40
2008,12,22,16,35,0.40
2008,12,22,16,36,0.40
2008,12,22,16,37,0.40
2008,12,22,16,38,0.40
2008,12,22,16,39,0.40
2008,12,22,16,40,0.40
2008,12,22,16,41,0.40
2008,12,22,16,42,0.30
2008,12,22,16,43,0.30
2008,12,22,16,44,0.30
2008,12,22,16,45,0.30
2008,12,22,16,46,0.30
2008,12,22,16,47,0.30
2008,12,22,16,48,0.30
2008,12,22,16,49,0.30
2008,12,22,16,50,0.30
2008,12,22,16,51,0.30
2008,12,22,16,52,0.30
2008,12,22,16,53,0.30
2008,12,22,16,54,0.30
2008,12,22,16,55,0.30
2008,12,22,16,56,0.30
2008,12,22,16,57,0.30
2008,12,22,16,58,0.30
2008,12,22,16,59,0.30
2008,12,22,17,00,0.30
2008,12,22,17,01,0.30
2008,12,22,17,02,0.30
2008,12,22,17,03,0.30
2008,12,22,17,04,0.30
2008,12,22,17,05,0.30
2008,12,22,17,06,0.30
2008,12,22,17,07,0.30
2008,12,22,17,08,0.30
2008,12,22,17,09,0.30
2008,12,22,17,10,0.30
2008,12,22,17,11,0.30
2008,12,22,17,12,0.30
2008,12,22,17,13,0.30
2008,12,22,17,14,0.30
2008,12,22,17,15,0.20
2008,12,22,17,16,0.20
2008,12,22,17,17,0.20
2008,12,22,17,18,0.20
2008,12,22,17,19,0.20
2008,12,22,17,20,0.20
2008,12,22,17,21,0.20
2008,12,22,17,22,0.20
2008,12,22,17,23,0.20
2008,12,22,17,24,0.20
2008,12,22,17,25,0.20
2008,12,22,17,26,0.20
2008,12,22,17,27,0.20
2008,12,22,17,28,0.20
2008,12,22,17,29,0.20
2008,12,22,17,30,0.10
2008,12,22,17,31,0.10
2008,12,22,17,32,0.10
2008,12,22,17,33,0.10
2008,12,22,17,34,0.10
2008,12,22,17,35,0.10
2008,12,22,17,36,0.10
2008,12,22,17,37,0.10
2008,12,22,17,38,0.10
2008,12,22,17,39,0.10
2008,12,22,17,40,0.10
2008,12,22,17,41,0.10
2008,12,22,17,42,0.10
2008,12,22,17,43,0.10
2008,12,22,17,44,0.10
2008,12,22,17,45,0.10
2008,12,22,17,46,0.10
2008,12,22,17,47,0.10
2008,12,22,17,48,0.10
2008,12,22,17,49,0.10
2008,12,22,17,50,0.10
2008,12,22,17,51,0.10
2008,12,22,17,52,0.10
2008,12,22,17,53,0.10
2008,12,22,17,54,0.10
2008,12,22,17,55,0.10
2008,12,22,17,56,0.10
2008,12,22,17,57,0.10
2008,12,22,17,58,0.10
2008,12,22,17,59,0.10
2008,12,22,18,00,0.10
2008,12,22,18,01,0.10
2008,12,22,18,02,0.10
2008,12,22,18,03,0.10
2008,12,22,18,04,0.00
2008,12,22,18,05,-0.10
2008,12,22,18,06,-0.10
2008,12,22,18,07,-0.10
2008,12,22,18,08,-0.10
2008,12,22,18,09,-0.10
2008,12,22,18,10,-0.10
2008,12,22,18,11,-0.10
2008,12,22,18,12,-0.10
2008,12,22,18,13,-0.10
2008,12,22,18,14,-0.10
2008,12,22,18,15,-0.10
2008,12,22,18,16,-0.10
2008,12,22,18,17,-0.10
2008,12,22,18,18,-0.10
2008,12,22,18,19,-0.10
2008,12,22,18,20,-0.20
2008,12,22,18,21,-0.20
2008,12,22,18,22,-0.20
2008,12,22,18,23,-0.20
2008,12,22,18,24,-0.20
2008,12,22,18,25,-0.20
2008,12,22,18,26,-0.20
2008,12,22,18,27,-0.20
2008,12,22,18,28,-0.20
2008,12,22,18,29,-0.20
2008,12,22,18,30,-0.20
2008,12,22,18,31,-0.20
2008,12,22,18,32,-0.20
2008,12,22,18,33,-0.20
2008,12,22,18,34,-0.20
2008,12,22,18,35,-0.20
2008,12,22,18,36,-0.20
2008,12,22,18,37,-0.20
2008,12,22,18,38,-0.20
2008,12,22,18,39,-0.20
2008,12,22,18,40,-0.20
2008,12,22,18,41,-0.20
2008,12,22,18,42,-0.20
2008,12,22,18,43,-0.20
2008,12,22,18,44,-0.20
2008,12,22,18,45,-0.20
2008,12,22,18,46,-0.20
2008,12,22,18,47,-0.20
2008,12,22,18,48,-0.20
2008,12,22,18,49,-0.20
2008,12,22,18,50,-0.20
2008,12,22,18,51,-0.20
2008,12,22,18,52,-0.20
2008,12,22,18,53,-0.20
2008,12,22,18,54,-0.20
2008,12,22,18,55,-0.20
2008,12,22,18,56,-0.20
2008,12,22,18,57,-0.20
2008,12,22,18,58,-0.20
2008,12,22,18,59,-0.20
2008,12,22,19,00,-0.20
2008,12,22,19,01,-0.20
2008,12,22,19,02,-0.20
2008,12,22,19,03,-0.20
2008,12,22,19,04,-0.20
2008,12,22,19,05,-0.20
2008,12,22,19,06,-0.30
2008,12,22,19,07,-0.30
2008,12,22,19,08,-0.30
2008,12,22,19,09,-0.30
2008,12,22,19,10,-0.30
2008,12,22,19,11,-0.30
2008,12,22,19,12,-0.30
2008,12,22,19,13,-0.30
2008,12,22,19,14,-0.30
2008,12,22,19,15,-0.30
2008,12,22,19,16,-0.30
2008,12,22,19,17,-0.30
2008,12,22,19,18,-0.30
2008,12,22,19,19,-0.30
2008,12,22,19,20,-0.30
2008,12,22,19,21,-0.30
2008,12,22,19,22,-0.30
2008,12,22,19,23,-0.40
2008,12,22,19,24,-0.40
2008,12,22,19,25,-0.40
2008,12,22,19,26,-0.40
2008,12,22,19,27,-0.40
2008,12,22,19,28,-0.40
2008,12,22,19,29,-0.40
2008,12,22,19,30,-0.40
2008,12,22,19,31,-0.40
2008,12,22,19,32,-0.40
2008,12,22,19,33,-0.40
2008,12,22,19,34,-0.40
2008,12,22,19,35,-0.50
2008,12,22,19,36,-0.60
2008,12,22,19,37,-0.60
2008,12,22,19,38,-0.60
2008,12,22,19,39,-0.60
2008,12,22,19,40,-0.60
2008,12,22,19,41,-0.70
2008,12,22,19,42,-0.70
2008,12,22,19,43,-0.70
2008,12,22,19,44,-0.70
2008,12,22,19,45,-0.70
2008,12,22,19,46,-0.70
2008,12,22,19,47,-0.70
2008,12,22,19,48,-0.70
2008,12,22,19,49,-0.70
2008,12,22,19,50,-0.70
2008,12,22,19,51,-0.70
2008,12,22,19,52,-0.70
2008,12,22,19,53,-0.70
